星链-3134 (STARLINK-3134 )

导读 | 豆包AI

STARLINK-3134是美国太空探索技术公司 SpaceX 星链卫星互联网项目的卫星,于2021年11月13日发射。星链计划旨在构建全球卫星互联网星座,该卫星是星链星座的组成单元之一,入轨后承担低轨卫星互联网信号转发任务,为全球提供高速低延迟的网络接入服务。

Basic Information
目录编号:
49434
目录名称:
STARLINK-3134
国际标识:
2021-104AC
轨道中心:
EARTH
卫星名称:
星链-3134
卫星全名:
星链-3134 (STARLINK-3134 )
卫星状态:
在轨 (已飞行1582 天)
发射日期:
2021-11-13 UTC
国别 :
美国 (US)
星等 :
--
Orbit Information
数据来源 国际轨道数据 AOE轨道数据
星历时间 2026-03-14T02:51:25+0800
1天前
查看轨道信息
2026-03-11T09:00:00+0800
3天前
查看轨道信息
半长轴 6917.865km 6917.908km
偏心率 0.0001162 0.0001031
轨道倾角 53.214° 53.215°
近地点辐角 78.849° 60.705°
升交点赤经 210.893° 223.214°
平近点角 281.263° 146.076°
近地点 538.924km 539.057km
远地点 540.532km 540.485km
周期 95.437分钟 95.438分钟
每日圈数 15.088451 15.08831
Detailed Information
固有亮度:
5
最大亮度:
2.5
卫星平台:
Starlink v1.5
覆盖范围:
全球
运营商:
太空探索技术公司
运营商所在国:
美国
制造商(研发单位):
太空探索技术公司
制造商所在国:
美国
使用方式:
暂无
Satellite Introduction
星链(Starlink)计划是由太空探索技术公司(SpaceX)提出的一个巨型低轨卫星互联网星座项目,计划在2019年至2024年间在太空搭建由约1.2万颗卫星组成的“星链”网络,其中1584颗将部署在地球上空550千米处的近地轨道,并从2020年开始工作。该卫星仍在工作。
2D Orbit Map
3D Orbit Map
Orbit Altitude Analysis Chart
Orbit Inclination Analysis Chart
Orbit Comprehensive Analysis Chart
View Comprehensive Chart